Home   Weather   Nienburg (Weser)   Past weeks

Flag for Germany Past Weather in Nienburg (Weser), Lower Saxony, Germany — Yesterday and Last 2 Weeks

Now
54 °F

Passing clouds.


Feels Like: 51 °F
Forecast: 49 / 68 °F
Wind: 8 mph from West

Location: Wunstorf Airport

Current Time: Aug 21, 2017 at 5:03:12 am

Latest Report: Aug 21, 2017 at 4:20 am


Visibility: N/A

Pressure: 30.18 "Hg

Humidity: 94%

Dew Point: 52 °F

Location of Nienburg (Weser)Location

Past Weather in Nienburg (Weser) — Graph

°F

Nienburg (Weser) Temperature Yesterday

Maximum temperature yesterday: 68 °F (at 2:20 pm)
Minimum temperature yesterday: 55 °F (at 12:20 am)
Average temperature yesterday: 60 °F

High & Low Weather Summary for the Past Weeks

 TemperatureHumidityPressure
High82 °F (Aug 15, 5:20 pm)100% (Aug 11, 4:20 am)30.21 "Hg (Aug 11, 4:20 am)
Low50 °F (Aug 7, 5:20 am)33% (Aug 7, 1:20 pm)29.77 "Hg (Aug 8, 5:20 pm)
Average63 °F76%30.03 "Hg
* Reported Aug 6 3:20 am — Aug 21 3:20 am, Nienburg (Weser). Weather by CustomWeather, © 2017

Note: Actual official high and low records may vary slightly from our data, if they occured in-between our weather recording intervals... More about our weather records

Advertising

Nienburg (Weser) Weather History for the Previous 24 Hours

Scroll right to see more
 ConditionsComfort  
Time TempWeatherWind HumidityBarometerVisibility
3:20 am
Mon, Aug 21
54 °FPassing clouds.12 mph94%30.18 "HgN/A
2:20 am54 °FPassing clouds.8 mph88%30.18 "HgN/A
1:20 am54 °FPassing clouds.7 mph94%30.18 "HgN/A
12:20 am55 °FPassing clouds.7 mph88%30.18 "HgN/A
11:20 pm
Sun, Aug 20
55 °FPartly cloudy.3 mph94%30.18 "HgN/A
10:20 pm57 °FPartly cloudy.6 mph88%30.18 "HgN/A
9:20 pm57 °FSprinkles. Partly cloudy.6 mph88%30.18 "HgN/A
8:20 pm59 °FSprinkles. Broken clouds.7 mph82%30.18 "Hg6 mi
7:20 pm61 °FScattered showers. Partly sunny.9 mph72%30.15 "HgN/A
6:20 pm63 °FScattered showers. Partly sunny.12 mph73%30.15 "HgN/A
5:20 pm61 °FBroken clouds.13 mph77%30.15 "HgN/A
4:20 pm61 °FBroken clouds.12 mph88%30.15 "HgN/A
3:20 pm59 °FSprinkles. Broken clouds.18 mph77%30.15 "HgN/A
2:20 pm68 °FBroken clouds.20 mph53%30.12 "HgN/A
1:20 pm66 °FBroken clouds.16 mph56%30.12 "HgN/A
12:20 pm66 °FPartly sunny.16 mph60%30.12 "HgN/A
11:20 am63 °FScattered clouds.17 mph68%30.12 "HgN/A
10:20 am63 °FScattered clouds.15 mph73%30.12 "HgN/A
9:20 am59 °FScattered clouds.15 mph77%30.12 "HgN/A
8:20 am57 °FBroken clouds.14 mph82%30.09 "HgN/A
7:20 am57 °FPartly sunny.12 mph82%30.09 "HgN/A
6:20 am57 °FPartly sunny.13 mph82%30.07 "HgN/A
5:20 am57 °FCool.14 mph82%30.07 "HgN/A
Weather by CustomWeather, © 2017

See weather overviewHow to use our weather pages